User: anonymous   Login
Location: Deep South Regional Star Gaze
(30.9929°N, 90.9586°W)
Time: 06:43:05
(UTC-05:00)
Language:

MSX - Orbit

View from above orbital plane
View from above orbital plane
View from above satellite
View from above satellite

Ground track
Ground track

The orbit data is extracted from the following two-line orbital elements,

1 23851U 96024A   18067.19404960 0.00000000  00000-0  00000-0 0    08
2 23851  98.6828  63.5386 0007004 318.1885  41.8114 13.98059049    05
Epoch (UTC): 08 March 2018 04:39:25
Eccentricity: 0.0007004
inclination: 98.6828°
perigee height: 895 km
apogee height: 905 km
right ascension of ascending node: 63.5386°
argument of perigee: 318.1885°
revolutions per day: 13.98059049
mean anomaly at epoch: 41.8114°
orbit number at epoch: 0

The dashed part of the orbit path shows where the satellite is in the earth's shadow,  

DLR